Flag for Poland Weather past 2 weeks in Olsztyn, Poland

Now
57 °F

Cool.


Feels Like: 57 °F
Forecast: 55 / 83 °F
Wind: 2 mph from Southeast

Location: Ketrzyn

Current Time: Aug 2, 2015 at 8:40:22 AM

Latest Report: Aug 2, 2015 at 7:00 AM


Visibility: 19 mi

Pressure: 30.22 "Hg

Humidity: 71%

Dew point: 48 °F

Location of OlsztynLocation

Historic Weather in Olsztyn — Graph

°F

Olsztyn temperature yesterday

Maximum temperature yesterday: 67 °F (at 6:00 PM)
Minimum temperature yesterday: 48 °F (at 5:00 AM)
Average temperature yesterday: 59 °F

Past Weeks' High & Low Weather Summary

 TemperatureHumidityPressure
High82 °F (Jul 18, 4:00 PM)97% (Jul 20, 3:00 AM)30.22 "Hg (Jul 20, 3:00 AM)
Low48 °F (Aug 1, 5:00 AM)41% (Jul 22, 3:00 PM)29.56 "Hg (Jul 28, 2:00 PM)
Average62 °F73%29.85 "Hg
* Reported Jul 18 7:00 AM — Aug 2 7:00 AM, Olsztyn, Weather by CustomWeather, © 2015

Note: Actual official high and low records may vary slightly from our data, if they occured in-between our weather recording intervals... More about our weather records

Advertising

Olsztyn weather history for previous 24 hours

 ConditionsComfort  
Time TempWeatherWind HumidityBarometerVisibility
7:00 AM
Sun, Aug 2
57 °FCool.2 mph71%30.22 "Hg19 mi
6:00 AM52 °FCool.2 mph79%30.20 "Hg19 mi
4:00 AM50 °FCool.2 mph83%30.19 "Hg19 mi
3:00 AM50 °FCool.1 mph86%30.19 "Hg18 mi
2:00 AM51 °FCool.2 mph85%30.19 "Hg22 mi
12:00 AM52 °FCool.1 mph86%30.18 "Hg18 mi
10:00 PM
Sat, Aug 1
56 °FCool.2 mph75%30.15 "Hg12 mi
9:00 PM59 °FCool.2 mph64%30.15 "Hg9 mi
8:00 PM63 °FMild.2 mph50%30.13 "Hg25 mi
7:00 PM66 °FMild.3 mph42%30.13 "Hg25 mi
6:00 PM67 °FMild.3 mph43%30.12 "Hg25 mi
5:00 PM67 °FMild.3 mph42%30.13 "Hg25 mi
4:00 PM67 °FMild.2 mph41%30.13 "Hg17 mi
3:00 PM65 °FMild.3 mph45%30.14 "Hg19 mi
2:00 PM63 °FMild.3 mph45%30.14 "Hg22 mi
1:00 PM62 °FRefreshingly cool.6 mph52%30.15 "Hg22 mi
12:00 PM61 °FRefreshingly cool.7 mph52%30.14 "Hg22 mi
11:00 AM64 °FMild.5 mph50%30.13 "Hg19 mi
10:00 AM61 °FRefreshingly cool.7 mph52%30.13 "Hg19 mi
9:00 AM60 °FCool.7 mph63%30.12 "Hg19 mi
8:00 AM57 °FCool.5 mph73%30.11 "Hg17 mi
Weather by CustomWeather, © 2015

See weather overviewHow to use our weather pages